This is the latest recevied weather packets stored in our database for station/object K8RLH. If no packets are shown the sender has not sent any weather packets the latest 10 day(s).
| Time | Temp. | Humidity | Pressure | Rain* | Wind** | Luminosity | Snow |
|---|---|---|---|---|---|---|---|
| 1777942203 | 19.44° C | 53% | 1016.9 hPa | 0 mm | - | 0 W/m² | - |
| 1777941900 | 19.44° C | 52% | 1016.7 hPa | 0 mm | - | 0 W/m² | - |
| 1777941596 | 20° C | 52% | 1016.6 hPa | 0 mm | - | 0 W/m² | - |
| 1777941294 | 20° C | 50% | 1016.6 hPa | 0 mm | - | 0 W/m² | - |
| 1777940990 | 20.56° C | 47% | 1016.6 hPa | 0 mm | - | 0 W/m² | - |
| 1777940686 | 21.11° C | 46% | 1016.4 hPa | 0 mm | - | 1 W/m² | - |
| 1777940385 | 21.11° C | 46% | 1016.6 hPa | 0 mm | - | 1 W/m² | - |
| 1777940082 | 21.11° C | 44% | 1016.7 hPa | 0 mm | - | 2 W/m² | - |
| 1777939779 | 21.67° C | 46% | 1016.6 hPa | 0 mm | - | 3 W/m² | - |
| 1777939477 | 21.67° C | 45% | 1016.6 hPa | 0 mm | - | 5 W/m² | - |
| 1777939173 | 21.67° C | 43% | 1016.5 hPa | 0 mm | - | 6 W/m² | - |
| 1777938871 | 22.22° C | 41% | 1016.4 hPa | 0 mm | - | 9 W/m² | - |
| 1777938566 | 22.22° C | 41% | 1016.3 hPa | 0 mm | - | 11 W/m² | - |
| 1777938264 | 22.22° C | 42% | 1016.3 hPa | 0 mm | - | 12 W/m² | - |
| 1777937961 | 22.78° C | 40% | 1016.4 hPa | 0 mm | - | 14 W/m² | - |
| 1777937656 | 22.78° C | 40% | 1016.1 hPa | 0 mm | - | 17 W/m² | - |
| 1777937354 | 22.78° C | 40% | 1016.1 hPa | 0 mm | - | 21 W/m² | - |
| 1777937051 | 23.33° C | 38% | 1016.3 hPa | 0 mm | - | 25 W/m² | - |
| 1777936748 | 23.33° C | 38% | 1016.1 hPa | 0 mm | - | 28 W/m² | - |
| 1777936444 | 23.33° C | 37% | 1016 hPa | 0 mm | - | 29 W/m² | - |
| 1777936140 | 23.89° C | 36% | 1016.1 hPa | 0 mm | - | 28 W/m² | - |
| 1777935837 | 23.89° C | 36% | 1016.4 hPa | 0 mm | - | 33 W/m² | - |
| 1777935536 | 23.89° C | 35% | 1016 hPa | 0 mm | - | 34 W/m² | - |
| 1777935232 | 23.89° C | 34% | 1016 hPa | 0 mm | - | 38 W/m² | - |
| 1777934930 | 23.89° C | 34% | 1016.1 hPa | 0 mm | - | 44 W/m² | - |
* Rain latest hour (hover to see other rain measurements)
** Current wind speed in m/s (hover to see current wind gust speed)